GW1285 Weather Reports


time (UTC)temp
C
wind
direction
speed
KPH
gust
KPH
rain 1hr
cm
rain 24hr
cm
rain mn
cm
humidity
%
barometer
mb
20260502162210 9 52 1.6 1.6 0.00 0.00 0.00 53 1023.5
20260502161708 8 255 0.0 1.6 0.00 0.00 0.00 55 1023.6
20260502161204 8 306 0.0 1.6 0.00 0.00 0.00 57 1023.9
20260502160703 8 54 1.6 3.2 0.00 0.00 0.00 55 1023.8
20260502160202 8 122 0.0 0.0 0.00 0.00 0.00 58 1023.6
20260502152115 5 358 1.6 3.2 0.00 0.00 0.00 65 1023.9
20260502151612 5 162 1.6 1.6 0.00 0.00 0.00 63 1024.0
20260502151110 4 352 0.0 1.6 0.00 0.00 0.00 65 1024.1
20260502150607 4 30 4.8 4.8 0.00 0.00 0.00 67 1024.2
20260502150103 3 6 1.6 3.2 0.00 0.00 0.00 69 1023.8
20260502130452 -2 154 0.0 0.0 0.00 0.00 0.00 83 1023.6
20260502123434 -2 117 0.0 1.6 0.00 0.00 0.00 82 1023.6
20260502122932 -2 265 3.2 4.8 0.00 0.00 0.00 83 1023.8
20260502122427 -2 150 0.0 0.0 0.00 0.00 0.00 84 1023.4
20260502121926 -2 150 0.0 0.0 0.00 0.00 0.00 84 1023.4
20260502121422 -2 150 0.0 0.0 0.00 0.00 0.00 83 1023.6
20260502120921 -2 148 0.0 1.6 0.00 0.00 0.00 84 1023.6
20260502120416 -2 152 0.0 0.0 0.00 0.00 0.00 83 1023.5
20260502115914 -2 152 0.0 0.0 0.00 0.00 0.00 82 1023.5
20260502115411 -1 141 1.6 1.6 0.00 0.00 0.00 81 1023.6
20260502114907 -1 141 1.6 1.6 0.00 0.00 0.00 81 1023.6
20260502114404 -2 177 0.0 0.0 0.00 0.00 0.00 81 1023.8
20260502113901 -1 177 0.0 1.6 0.00 0.00 0.00 81 1023.6
20260502113358 -1 178 0.0 0.0 0.00 0.00 0.00 82 1023.8
20260502112856 -1 178 0.0 0.0 0.00 0.00 0.00 80 1023.5
20260502112354 -1 178 0.0 1.6 0.00 0.00 0.00 81 1023.9
20260502111851 -1 177 0.0 0.0 0.00 0.00 0.00 80 1023.6
20260502111348 -1 178 0.0 0.0 0.00 0.00 0.00 82 1023.5
20260502110846 -1 178 0.0 1.6 0.00 0.00 0.00 82 1023.6
20260502110344 -1 177 0.0 0.0 0.00 0.00 0.00 83 1023.6
20260502105841 -1 177 0.0 0.0 0.00 0.00 0.00 82 1023.8
20260502105338 -1 177 0.0 0.0 0.00 0.00 0.00 80 1023.6
20260502104835 -1 177 0.0 1.6 0.00 0.00 0.00 80 1023.8
20260502104333 0 177 0.0 0.0 0.00 0.00 0.00 77 1023.8
20260502103830 -1 177 0.0 0.0 0.00 0.00 0.00 78 1023.8
20260502103327 -1 178 0.0 0.0 0.00 0.00 0.00 79 1023.6
20260502102824 -1 179 0.0 0.0 0.00 0.00 0.00 79 1023.4
20260502102320 0 178 0.0 0.0 0.00 0.00 0.00 77 1023.5
20260502101818 0 178 0.0 0.0 0.00 0.00 0.00 77 1023.6
20260502101316 0 178 0.0 0.0 0.00 0.00 0.00 77 1023.8
20260502100814 0 183 0.0 0.0 0.00 0.00 0.00 76 1023.6
20260502100313 0 183 0.0 1.6 0.00 0.00 0.00 76 1023.9
20260502091247 0 197 0.0 0.0 0.00 0.00 0.00 74 1023.5
20260502090744 0 200 1.6 1.6 0.00 0.00 0.00 75 1023.5
20260502090241 0 225 0.0 0.0 0.00 0.00 0.00 71 1023.4
20260502071142 1 192 0.0 0.0 0.00 0.00 0.00 67 1023.3
20260502070640 2 192 0.0 1.6 0.00 0.00 0.00 68 1023.6
20260502070137 2 139 0.0 0.0 0.00 0.00 0.00 66 1023.5
20260502065635 2 255 0.0 1.6 0.00 0.00 0.00 64 1023.5
20260502065133 2 249 0.0 0.0 0.00 0.00 0.00 66 1023.4
20260502064632 3 249 0.0 0.0 0.00 0.00 0.00 62 1023.4
20260502064128 3 102 0.0 1.6 0.00 0.00 0.00 61 1023.4
20260502063626 4 158 0.0 1.6 0.00 0.00 0.00 58 1022.9
20260502063124 4 178 0.0 1.6 0.00 0.00 0.00 57 1023.4
20260502062620 5 73 1.6 1.6 0.00 0.00 0.00 56 1023.0
20260502062118 5 66 1.6 9.7 0.00 0.00 0.00 55 1022.9
20260502061616 4 70 1.6 1.6 0.00 0.00 0.00 57 1023.2
20260502061114 4 119 0.0 1.6 0.00 0.00 0.00 57 1023.0
20260502060613 5 102 0.0 1.6 0.00 0.00 0.00 58 1022.9
20260502060110 5 158 1.6 1.6 0.00 0.00 0.00 57 1023.0
20260502055608 5 222 3.2 4.8 0.00 0.00 0.00 54 1023.0
20260502055106 5 179 1.6 3.2 0.00 0.00 0.00 57 1023.0
20260502054605 5 158 3.2 3.2 0.00 0.00 0.00 58 1023.0
20260502054102 5 110 1.6 3.2 0.00 0.00 0.00 57 1022.9
20260502053558 5 184 4.8 8.0 0.00 0.00 0.00 58 1023.0
20260502053056 5 216 4.8 4.8 0.00 0.00 0.00 55 1023.0
20260502052554 5 182 0.0 3.2 0.00 0.00 0.00 54 1022.8
20260502052052 5 93 1.6 4.8 0.00 0.00 0.00 53 1022.7
20260502051550 5 172 3.2 3.2 0.00 0.00 0.00 54 1022.5
20260502051048 5 175 3.2 3.2 0.00 0.00 0.00 57 1022.8
20260502050543 6 151 8.0 9.7 0.00 0.00 0.00 55 1022.8
20260502050040 6 180 3.2 3.2 0.00 0.00 0.00 51 1023.0
20260502045537 6 170 0.0 3.2 0.00 0.00 0.00 51 1022.9
20260502045034 6 200 1.6 3.2 0.00 0.00 0.00 52 1022.9
20260502044531 6 190 4.8 8.0 0.00 0.00 0.00 50 1022.5
20260502044027 6 152 0.0 1.6 0.00 0.00 0.00 53 1022.8
20260502043525 6 176 3.2 3.2 0.00 0.00 0.00 51 1022.7
20260502043021 6 178 1.6 3.2 0.00 0.00 0.00 50 1022.5
20260502042516 6 202 0.0 1.6 0.00 0.00 0.00 50 1022.5
20260502042014 6 149 3.2 3.2 0.00 0.00 0.00 50 1022.1
20260502041512 6 170 0.0 0.0 0.00 0.00 0.00 52 1022.4
20260502041008 7 171 0.0 1.6 0.00 0.00 0.00 48 1022.3
20260502040505 7 141 1.6 1.6 0.00 0.00 0.00 48 1022.1
20260502040003 7 112 0.0 1.6 0.00 0.00 0.00 47 1022.2
20260502035457 7 102 0.0 1.6 0.00 0.00 0.00 48 1022.1
20260502034955 7 122 1.6 3.2 0.00 0.00 0.00 48 1021.7
20260502034454 8 121 1.6 3.2 0.00 0.00 0.00 47 1021.7
20260502033952 8 184 0.0 1.6 0.00 0.00 0.00 47 1021.8
20260502033449 8 154 1.6 3.2 0.00 0.00 0.00 47 1021.3
20260502032946 8 152 1.6 4.8 0.00 0.00 0.00 46 1021.3
20260502032442 8 122 3.2 3.2 0.00 0.00 0.00 46 1021.3
20260502031939 8 144 1.6 3.2 0.00 0.00 0.00 46 1021.5
20260502031438 8 144 1.6 3.2 0.00 0.00 0.00 47 1021.3
20260502030936 8 130 3.2 3.2 0.00 0.00 0.00 45 1021.3
20260502030434 8 182 1.6 4.8 0.00 0.00 0.00 46 1021.2
20260502025931 9 141 1.6 4.8 0.00 0.00 0.00 45 1021.1
20260502025428 9 124 1.6 3.2 0.00 0.00 0.00 46 1021.0
20260502024926 9 146 1.6 3.2 0.00 0.00 0.00 46 1021.2
20260502024424 10 139 1.6 3.2 0.00 0.00 0.00 45 1021.1
20260502023922 10 133 3.2 3.2 0.00 0.00 0.00 45 1021.1
20260502023419 10 134 3.2 4.8 0.00 0.00 0.00 43 1021.0
20260502022916 10 146 1.6 3.2 0.00 0.00 0.00 43 1020.9
20260502022412 10 91 1.6 3.2 0.00 0.00 0.00 41 1020.9
20260502021909 11 147 0.0 3.2 0.00 0.00 0.00 43 1021.0
20260502021407 12 121 1.6 1.6 0.00 0.00 0.00 43 1021.1
20260502020904 13 28 1.6 1.6 0.00 0.00 0.00 35 1020.7
20260502020402 13 14 1.6 4.8 0.00 0.00 0.00 36 1021.1
20260502015858 13 15 4.8 4.8 0.00 0.00 0.00 37 1020.6
20260502015355 13 8 1.6 1.6 0.00 0.00 0.00 36 1020.9
20260502014853 13 14 1.6 3.2 0.00 0.00 0.00 37 1021.0
20260502014349 14 356 1.6 3.2 0.00 0.00 0.00 37 1020.7
20260502013845 15 251 0.0 1.6 0.00 0.00 0.00 34 1020.9
20260502013341 15 231 0.0 4.8 0.00 0.00 0.00 32 1021.0
20260502012838 16 275 0.0 3.2 0.00 0.00 0.00 31 1020.5
20260502012336 16 296 1.6 4.8 0.00 0.00 0.00 30 1020.7
20260502011833 16 283 1.6 4.8 0.00 0.00 0.00 31 1020.5
20260502011329 16 284 4.8 9.7 0.00 0.00 0.00 29 1020.7
20260502010827 16 248 4.8 8.0 0.00 0.00 0.00 30 1020.7
20260502010323 16 330 4.8 9.7 0.00 0.00 0.00 28 1020.6
20260502005820 16 263 3.2 9.7 0.00 0.00 0.00 29 1020.7
20260502005318 16 240 3.2 8.0 0.00 0.00 0.00 29 1020.6
20260502004815 16 265 0.0 8.0 0.00 0.00 0.00 28 1020.6
20260502004310 16 288 4.8 4.8 0.00 0.00 0.00 29 1020.9
20260502003809 16 38 4.8 8.0 0.00 0.00 0.00 28 1020.7
20260502003305 16 263 3.2 4.8 0.00 0.00 0.00 30 1020.7
20260502002801 16 278 1.6 9.7 0.00 0.00 0.00 31 1020.9
20260502002259 16 265 4.8 9.7 0.00 0.00 0.00 29 1020.7
20260502001756 16 290 6.4 9.7 0.00 0.00 0.00 27 1020.6
20260502001254 16 340 1.6 4.8 0.00 0.00 0.00 28 1020.7
20260502000752 17 264 6.4 8.0 0.00 0.00 0.00 27 1020.9
20260502000250 16 276 3.2 4.8 0.00 0.00 0.00 29 1020.9
20260501235744 16 314 0.0 8.0 0.00 0.00 0.00 28 1020.7
20260501235241 16 272 4.8 11.3 0.00 0.00 0.00 29 1021.2
20260501234737 17 329 4.8 8.0 0.00 0.00 0.00 28 1020.9
20260501234234 17 333 1.6 8.0 0.00 0.00 0.00 28 1021.0
20260501233732 16 256 4.8 8.0 0.00 0.00 0.00 25 1020.7
20260501233229 16 286 4.8 8.0 0.00 0.00 0.00 27 1020.7
20260501232724 16 254 6.4 16.1 0.00 0.00 0.00 27 1020.9
20260501232222 16 252 1.6 12.9 0.00 0.00 0.00 28 1020.7
20260501231719 16 260 4.8 8.0 0.00 0.00 0.00 26 1020.7
20260501231217 16 249 8.0 11.3 0.00 0.00 0.00 25 1020.9
20260501230715 16 282 4.8 9.7 0.00 0.00 0.00 28 1020.7
20260501230214 17 257 0.0 11.3 0.00 0.00 0.00 29 1021.0
20260501225711 16 247 3.2 4.8 0.00 0.00 0.00 26 1021.0
20260501225208 16 334 4.8 8.0 0.00 0.00 0.00 27 1021.0
20260501224704 16 257 4.8 9.7 0.00 0.00 0.00 26 1021.1
20260501224201 16 287 8.0 9.7 0.00 0.00 0.00 25 1021.0
20260501223658 16 247 4.8 4.8 0.00 0.00 0.00 25 1021.1
20260501223154 16 274 6.4 11.3 0.00 0.00 0.00 27 1021.1
20260501222650 16 311 6.4 9.7 0.00 0.00 0.00 28 1021.2
20260501222148 16 202 1.6 8.0 0.00 0.00 0.00 29 1021.1
20260501221644 16 272 8.0 11.3 0.00 0.00 0.00 27 1021.5
20260501221141 16 261 6.4 11.3 0.00 0.00 0.00 28 1021.3
20260501220639 15 263 3.2 11.3 0.00 0.00 0.00 30 1021.1
20260501220136 15 311 6.4 8.0 0.00 0.00 0.00 28 1021.5
20260501215633 16 308 8.0 14.5 0.00 0.00 0.00 29 1021.6
20260501215128 16 324 8.0 11.3 0.00 0.00 0.00 26 1021.6
20260501214623 16 246 1.6 8.0 0.00 0.00 0.00 29 1021.6
20260501214119 15 243 8.0 12.9 0.00 0.00 0.00 27 1021.5
20260501213616 16 259 8.0 9.7 0.00 0.00 0.00 28 1021.6
20260501213112 15 270 3.2 8.0 0.00 0.00 0.00 25 1021.8
20260501212609 15 294 4.8 9.7 0.00 0.00 0.00 28 1021.8
20260501212106 15 277 6.4 11.3 0.00 0.00 0.00 27 1021.8
20260501211602 15 278 4.8 9.7 0.00 0.00 0.00 30 1021.8
20260501211100 15 293 1.6 11.3 0.00 0.00 0.00 32 1022.1
20260501210556 15 260 1.6 4.8 0.00 0.00 0.00 37 1022.2
20260501210053 15 289 8.0 12.9 0.00 0.00 0.00 35 1022.2
20260501205550 14 296 8.0 12.9 0.00 0.00 0.00 36 1022.3
20260501205048 14 266 4.8 8.0 0.00 0.00 0.00 37 1021.9
20260501204543 13 285 3.2 9.7 0.00 0.00 0.00 38 1021.9
20260501204039 13 238 4.8 8.0 0.00 0.00 0.00 37 1022.2
20260501203536 13 343 4.8 9.7 0.00 0.00 0.00 37 1022.3
20260501203034 13 272 3.2 8.0 0.00 0.00 0.00 39 1022.3
20260501202531 13 255 4.8 12.9 0.00 0.00 0.00 39 1022.3
20260501202027 13 347 3.2 4.8 0.00 0.00 0.00 39 1022.4
20260501201525 13 26 3.2 8.0 0.00 0.00 0.00 41 1022.3
20260501201021 13 290 3.2 8.0 0.00 0.00 0.00 39 1022.5
20260501200518 13 274 1.6 8.0 0.00 0.00 0.00 38 1022.4
20260501200016 13 241 0.0 3.2 0.00 0.00 0.00 36 1022.5
20260501195513 13 295 3.2 9.7 0.00 0.00 0.00 39 1022.8
20260501195008 13 252 4.8 9.7 0.00 0.00 0.00 39 1022.4
20260501194504 13 284 4.8 9.7 0.00 0.00 0.00 38 1022.8
20260501194000 13 354 6.4 8.0 0.00 0.00 0.00 40 1022.7
20260501193458 12 341 3.2 4.8 0.00 0.00 0.00 45 1022.7
20260501192955 13 258 4.8 8.0 0.00 0.00 0.00 43 1022.7
20260501192453 12 223 1.6 9.7 0.00 0.00 0.00 46 1022.5
20260501191950 12 247 4.8 8.0 0.00 0.00 0.00 44 1022.8
20260501191447 12 29 6.4 12.9 0.00 0.00 0.00 45 1022.9
20260501190944 12 18 8.0 9.7 0.00 0.00 0.00 46 1022.8
20260501190440 11 130 3.2 3.2 0.00 0.00 0.00 53 1023.0
20260501185935 12 65 1.6 4.8 0.00 0.00 0.00 46 1023.0
20260501185431 11 100 0.0 3.2 0.00 0.00 0.00 45 1023.0
20260501184927 11 116 4.8 8.0 0.00 0.00 0.00 45 1023.2
20260501184424 12 29 6.4 9.7 0.00 0.00 0.00 47 1023.2
20260501183918 12 223 1.6 8.0 0.00 0.00 0.00 47 1023.3
20260501183416 11 224 3.2 11.3 0.00 0.00 0.00 47 1023.4
20260501182912 11 314 3.2 9.7 0.00 0.00 0.00 47 1023.3
20260501182410 11 82 1.6 4.8 0.00 0.00 0.00 46 1023.3
20260501181906 12 21 3.2 4.8 0.00 0.00 0.00 48 1023.4
20260501181403 11 208 1.6 8.0 0.00 0.00 0.00 51 1023.3
20260501180900 11 289 3.2 4.8 0.00 0.00 0.00 55 1023.5
20260501180357 11 303 3.2 4.8 0.00 0.00 0.00 47 1023.5
20260501175854 11 279 4.8 4.8 0.00 0.00 0.00 51 1023.6
20260501175350 10 69 3.2 11.3 0.00 0.00 0.00 50 1023.6
20260501174847 10 104 1.6 4.8 0.00 0.00 0.00 50 1023.8
20260501174345 10 296 4.8 8.0 0.00 0.00 0.00 51 1023.8
20260501173842 10 252 8.0 12.9 0.00 0.00 0.00 52 1024.0
20260501173340 10 91 1.6 9.7 0.00 0.00 0.00 52 1024.0
20260501172835 10 0 4.8 8.0 0.00 0.00 0.00 50 1024.0
20260501172330 9 273 3.2 9.7 0.00 0.00 0.00 50 1023.9
20260501171826 9 340 3.2 4.8 0.00 0.00 0.00 51 1023.8
20260501171324 9 242 3.2 8.0 0.00 0.00 0.00 51 1023.9
20260501170820 9 264 0.0 9.7 0.00 0.00 0.00 53 1024.2
20260501170317 9 346 1.6 4.8 0.00 0.00 0.00 51 1024.0
20260501165814 9 240 1.6 8.0 0.00 0.00 0.00 55 1024.0
20260501165312 8 273 1.6 4.8 0.00 0.00 0.00 59 1023.9
20260501164810 8 18 0.0 3.2 0.00 0.00 0.00 61 1023.9
20260501164307 8 56 3.2 4.8 0.00 0.00 0.00 61 1024.2
20260501163803 8 250 1.6 4.8 0.00 0.00 0.00 60 1024.2
20260501163300 8 5 3.2 4.8 0.00 0.00 0.00 61 1024.1
20260501162756 7 311 3.2 3.2 0.00 0.00 0.00 64 1024.0